This is the latest recevied weather packets stored in our database for station/object KB0BS-13. If no packets are shown the sender has not sent any weather packets the latest 10 day(s).
| Time | Temp. | Humidity | Pressure | Rain* | Wind** | Luminosity | Snow |
|---|---|---|---|---|---|---|---|
| 1777348863 | 11.67° C | 69% | 1004.6 hPa | 0 mm | - | 0 W/m² | - |
| 1777348561 | 11.67° C | 67% | 1004.7 hPa | 0 mm | - | 0 W/m² | - |
| 1777348258 | 12.22° C | 67% | 1004.5 hPa | 0 mm | - | 0 W/m² | - |
| 1777347956 | 12.22° C | 66% | 1004.4 hPa | 0 mm | - | 0 W/m² | - |
| 1777347654 | 12.22° C | 66% | 1004.8 hPa | 0 mm | - | 0 W/m² | - |
| 1777347350 | 12.22° C | 67% | 1004.6 hPa | 0 mm | - | 0 W/m² | - |
| 1777347046 | 12.22° C | 66% | 1004.7 hPa | 0 mm | - | 0 W/m² | - |
| 1777346743 | 12.78° C | 64% | 1004.9 hPa | 0 mm | - | 0 W/m² | - |
| 1777346438 | 12.78° C | 65% | 1005 hPa | 0 mm | - | 0 W/m² | - |
| 1777346136 | 12.78° C | 64% | 1004.6 hPa | 0 mm | - | 0 W/m² | - |
| 1777345833 | 13.33° C | 63% | 1005 hPa | 0 mm | - | 0 W/m² | - |
| 1777345531 | 13.33° C | 64% | 1005 hPa | 0 mm | - | 0 W/m² | - |
| 1777345229 | 13.33° C | 63% | 1005.3 hPa | 0 mm | - | 0 W/m² | - |
| 1777344924 | 13.33° C | 62% | 1005.6 hPa | 0 mm | - | 0 W/m² | - |
| 1777344621 | 13.33° C | 62% | 1005.9 hPa | 0 mm | - | 0 W/m² | - |
| 1777344317 | 13.33° C | 61% | 1005.8 hPa | 0 mm | - | 0 W/m² | - |
| 1777344015 | 13.33° C | 62% | 1005.7 hPa | 0 mm | - | 0 W/m² | - |
| 1777343711 | 13.33° C | 62% | 1005.6 hPa | 0 mm | - | 0 W/m² | - |
| 1777343409 | 13.33° C | 63% | 1006.2 hPa | 0 mm | - | 0 W/m² | - |
| 1777343107 | 13.89° C | 60% | 1006 hPa | 0 mm | - | 0 W/m² | - |
| 1777342807 | 13.89° C | 61% | 1006.2 hPa | 0 mm | - | 0 W/m² | - |
| 1777342500 | 13.89° C | 63% | 1006.4 hPa | 0 mm | - | 0 W/m² | - |
| 1777342197 | 13.33° C | 63% | 1006.2 hPa | 0 mm | - | 0 W/m² | - |
| 1777341893 | 13.33° C | 65% | 1006.4 hPa | 0 mm | - | 0 W/m² | - |
| 1777341589 | 13.33° C | 66% | 1006.5 hPa | 0 mm | - | 0 W/m² | - |
* Rain latest hour (hover to see other rain measurements)
** Current wind speed in m/s (hover to see current wind gust speed)